COSMOS 724

Satellite information

Favourite Embed

Satellite Type and Status

PAYLOADIN ORBIT

Key statistics

Satellite COSMOS 724 at a glance.

Uptime

18455

Days in orbit

Revolutions

≈ 14.0

Per day

Orbit

LEO

Low Earth Orbit

Inclination

65.6

Latest

Satellite identification and parameters

Extended collection of information and parameters for COSMOS 724.

Object identification

Identified? True

Debris? False

Object name: COSMOS 724

International designator: 1975-025A

Object number (NORAD): 7727

Object ID (CCSDS): 7727

Country: COMMONWEALTH OF INDEPENDENT STATES (CIS)

Current information (Y/N): Y

RCS size: LARGE

Orbital parameters

Period: 102.923 minutes

Inclination: 65.5905 deg

SMA: 7275.027 km

Apoapsis: 945.419 km

Periapsis: 848.365 km

RAAN: 333.7039 deg

Eccentricy: 0.0066703

Argument of periapsis: 237.4825 deg

Mean anomaly: 121.9792 deg

Mean motion: 13.99106746 rev/day

Mean motion (dot): -0.00000031 rev/day2

B* drag term: 0.000038376 1/REarth

Two-line elements (TLE)

Creation date: Oct. 15, 2025, 11:56 p.m.

Reference frame: TEME

Reference center: EARTH

Epoch: Oct. 15, 2025, 12:39 p.m. UTC

TLE line 0: 0 COSMOS 724

TLE line 1: 1 7727U 75025A 25288.52725497 -.00000031 00000-0 38376-4 0 9994

TLE line 2: 2 7727 65.5905 333.7039 0066703 237.4825 121.9792 13.99106746581467

Live tracking on map

Real-time ground track for satellite COSMOS 724.

In-orbit conjunctions

A list of the most updated potential collisions computed for object COSMOS 724.

Target Orbit TCA Probability of collision Miss distance Type
METEOR 2-11 DEB LEO 2025-03-04 02:53:10 0.001501883 92.0 (m) DEBRIS
CZ-6A DEB LEO 2025-03-02 21:09:15 0.002382594 122.0 (m) DEBRIS
FENGYUN 1C DEB SSO 2025-02-25 21:01:33 0.0001357655 109.0 (m) DEBRIS
THORAD AGENA D DEB SSO 2025-02-25 12:21:07 0.0001919057 766.0 (m) DEBRIS
FENGYUN 1C DEB SSO 2025-02-22 13:11:59 0.0001147512 827.0 (m) DEBRIS

Associated space launch

Active radar satellite for ocean surveillance powered by a nuclear reactor.

COSMOS 724 was lifted into orbit during the mission ‘Tsiklon-2 | US-A 10’, on board a Tsiklon-2 space rocket.

The launch took place on April 7, 1975, 11 a.m. from 90/20.

For more information about the launch, click the button.

Launch to space Tsiklon-2 | US-A 10
Tsiklon-2 | US-A 10

Agency: N/A

Status: Launch Successful

Launch date: April 7, 1975, 11 a.m. UTC

Rocket: Tsiklon-2

Launch pad: 90/20

Location: Baikonur Cosmodrome, Republic of Kazakhstan

...

Latest news about this satellite

There are no fresh news available about this satellite. Check back as we update our databases every day.


Newsletter sign-up

Weekly statistics, charts and insights to help you stay on top of the space industry.